Regional Weather Roundup
Issued by NWS Jackson, KY

Home | Current Version | Previous Version | Graphics & Text | Print | Product List | Glossary On
Versions: 1 2 3 4 5 6 7 8 9 10 11 12 13 14 15 16 17 18 19 20 21 22 23 24 25 26 27 28 29 30 31 32 33 34 35 36 37 38 39 40 41 42 43 44 45 46 47 48 49 50
000
ASUS43 KJKL 300010
RWRJKL

EAST KENTUCKY HOURLY WEATHER ROUNDUP
NATIONAL WEATHER SERVICE JACKSON KY
800 PM EDT WED JUL 29 2015

NOTE: "FAIR" INDICATES FEW OR NO CLOUDS BELOW 12,000 FEET WITH
NO SIGNIFICANT WEATHER AND/OR OBSTRUCTIONS TO VISIBILITY.

* THESE REPORTS ARE NOT UNDER NWS QUALITY CONTROL AND MAY NOT
  REPORT WEATHER SUCH AS PRECIPITATION AND FOG.

KYZ079-080-083-085-087-088-110-112-115-119-120-300100
...EASTERN KENTUCKY...

CITY           SKY/WX    TMP DP  RH WIND       PRES   REMARKS
JACKSON        MOCLDY    82  72  71 CALM      30.00S
6HR MIN TEMP:  82; 6HR MAX TEMP:  89;

LONDON         CLEAR     86  70  58 W6        30.01R HX  90
6HR MIN TEMP:  83; 6HR MAX TEMP:  90;

SOMERSET*      MOCLDY    86  73  66 SE5       30.00R HX  93
MONTICELLO*    CLEAR     89  82  79 CALM      30.02R HX 109
6HR MIN TEMP:  89; 6HR MAX TEMP:  94;

WILLIAMSBURG*  CLEAR     84  75  74 CALM      30.01  HX  92
MIDDLESBORO*   PTCLDY    86  73  66 W3        30.00R HX  93
6HR MIN TEMP:  86; 6HR MAX TEMP:  90;

HAZARD APT*    MOCLDY    84  72  65 CALM      30.00
BLACK MTN*       N/A     72  68  88 N3          N/A
PIKEVILLE APT* CLEAR     84  72  65 CALM      30.00S
BIG SANDY*     PTCLDY    85  74  67 CALM      29.98S HX  93
6HR MIN TEMP:  85; 6HR MAX TEMP:  89;

MOREHEAD APT*  LGT RAIN  77  73  88 W3        30.01R
$$

KYZ035-036-041-042-044-050-067-078-099-300100
...CENTRAL KENTUCKY...

CITY           SKY/WX    TMP DP  RH WIND       PRES   REMARKS
MT STERLING*   CLOUDY    73  73 100 SW5       30.00S
FLEMING/MASON* CLEAR     75  73  94 SW5       29.99R
DANVILLE*      PTCLDY    81  77  89 CALM      30.01R
RICHMOND*      PTCLDY    81  73  78 N3        30.00R
LEXINGTON      LGT RAIN  77  69  76 W10G25    30.02R
6HR MIN TEMP:  77; 6HR MAX TEMP:  90; 6HR PCP:  0.29;

FRANKFORT      LGT RAIN  73  69  87 SW3       29.98F
6HR MIN TEMP:  72; 6HR MAX TEMP:  88; 6HR PCP:  0.71;

$$

KYZ091>093-OHZ055-061-077-WVZ005-015-034-035-042-300100
...SOUTHERN OHIO/WEST VIRGINIA...

CITY           SKY/WX    TMP DP  RH WIND       PRES   REMARKS
COVINGTON      CLOUDY    77  74  90 S10       29.97R FOG
COLUMBUS       LGT RAIN  75  72  90 SE5       29.94S
DAYTON         MOCLDY    79  74  84 S7        29.96R
WILMINGTON     CLOUDY    76  72  87 SW3       29.95S
HUNTINGTON     CLEAR     83  74  74 S3        29.93F
CHARLESTON     HVY RAIN  78  72  81 VRB3      29.96R VSB 1
PINEVILLE*     PTCLDY    77  75  91 MISG      30.06S
BECKLEY        PTCLDY    79  69  71 CALM      30.07R
BLUEFIELD      CLOUDY    77  68  73 CALM      30.10R
$$

VAZ002-007-008-TNZ017-027-036-066-071-300100
...SOUTHWEST VIRGINIA/EAST TENNESSEE...

CITY           SKY/WX    TMP DP  RH WIND       PRES   REMARKS
WISE*          CLEAR     82  66  57 NW3       30.10R
ABINGDON*      MOCLDY    84  68  58 CALM      30.05R
BRISTOL        MOCLDY    85  71  63 SW3       30.01R HX  90
KNOXVILLE      MOCLDY    89  70  53 CALM      29.98R HX  94
OAK RIDGE      CLEAR     89  72  56 CALM      30.00R HX  96
CROSSVILLE     PTCLDY    85  72  65 N5        30.06R HX  91
NASHVILLE      PTCLDY    91  76  61 W3        29.96S HX 103
$$

...KEY TO REMARKS...
VSB - VISIBILITY IN MILES
WCI - WIND CHILL INDEX
HX  - HEAT INDEX

$$


USA.gov is the U.S. government's official web portal to all federal, state and local government web resources and services.